Home   Weather   Karlsruhe   Past weeks

Flag for Germany Past Weather in Karlsruhe, Baden-Württemberg, Germany — Yesterday and Last 2 Weeks

57 °F

Partly sunny.

Feels Like: 57 °F
Forecast: 41 / 56 °F
Wind: 3 mph from North

Location: Karlsruhe - Baden Wurttemberg

Current Time: Oct 25, 2016 at 12:27:55 PM

Latest Report: Oct 25, 2016 at 11:50 AM

Visibility: N/A

Pressure: 30.21 "Hg

Humidity: 88%

Dew Point: 54 °F

Location of KarlsruheLocation

Past Weather in Karlsruhe — Graph


Karlsruhe Temperature Yesterday

Maximum temperature yesterday: 61 °F (at 2:50 PM)
Minimum temperature yesterday: 48 °F (at 4:50 AM)
Average temperature yesterday: 54 °F

High & Low Weather Summary for the Past Weeks

High63 °F (Oct 15, 4:20 PM)100% (Oct 10, 10:20 AM)30.24 "Hg (Oct 10, 10:20 AM)
Low32 °F (Oct 23, 4:50 AM)51% (Oct 12, 4:20 PM)29.62 "Hg (Oct 14, 6:50 PM)
Average49 °F88%30.01 "Hg
* Reported Oct 10 10:20 AM — Oct 25 10:50 AM, Karlsruhe, Weather by CustomWeather, © 2016

Note: Actual official high and low records may vary slightly from our data, if they occured in-between our weather recording intervals... More about our weather records


Karlsruhe Weather History for the Previous 24 Hours

Scroll right to see more
Time TempWeatherWind HumidityBarometerVisibility
10:50 AM
Tue, Oct 25
57 °FPartly sunny.3 mph88%30.21 "HgN/A
10:20 AM55 °FPartly sunny.1 mph94%30.18 "HgN/A
9:50 AM55 °FScattered clouds.3 mph100%30.18 "HgN/A
9:20 AM55 °FPartly sunny.No wind100%30.18 "HgN/A
8:50 AM55 °FPartly sunny.5 mph94%30.18 "HgN/A
8:20 AM55 °FScattered showers. Partly sunny.3 mph94%30.15 "Hg5 mi
7:50 AM55 °FScattered showers. Passing clouds.6 mph100%30.12 "Hg4 mi
7:20 AM55 °FScattered showers. Partly cloudy.6 mph100%30.12 "HgN/A
6:50 AM55 °FScattered showers. Passing clouds.6 mph100%30.12 "HgN/A
6:20 AM55 °FLight rain. Passing clouds.5 mph100%30.09 "Hg4 mi
5:50 AM57 °FRain. Fog.7 mph100%30.07 "Hg3 mi
5:20 AM57 °FRain. Partly cloudy.9 mph100%30.07 "Hg2 mi
4:50 AM57 °FRain. Partly cloudy.12 mph100%30.04 "Hg4 mi
10:20 PM
Mon, Oct 24
55 °FRain. Fog.3 mph100%29.95 "Hg2 mi
9:50 PM55 °FLight rain. Passing clouds.3 mph100%29.95 "Hg4 mi
9:20 PM55 °FLight rain. Passing clouds.5 mph100%29.95 "Hg4 mi
8:50 PM55 °FPassing clouds.3 mph100%29.95 "Hg4 mi
8:20 PM55 °FPassing clouds.5 mph100%29.95 "Hg4 mi
7:50 PM55 °FPassing clouds.2 mph100%29.92 "Hg5 mi
7:20 PM55 °FPassing clouds.2 mph100%29.92 "HgN/A
6:50 PM57 °FPassing clouds.2 mph94%29.92 "HgN/A
6:20 PM57 °FPassing clouds.1 mph94%29.92 "HgN/A
5:50 PM59 °FPartly sunny.1 mph88%29.89 "HgN/A
5:20 PM59 °FSunny.2 mph88%29.89 "Hg10 mi
4:50 PM61 °FPartly sunny.1 mph83%29.89 "HgN/A
4:20 PM59 °FSunny.1 mph88%29.89 "Hg10 mi
3:50 PM61 °FPassing clouds.5 mph83%29.89 "HgN/A
3:20 PM61 °FSunny.2 mph83%29.89 "Hg10 mi
2:50 PM61 °FSunny.2 mph83%29.89 "Hg10 mi
2:20 PM57 °FPartly sunny.2 mph94%29.89 "HgN/A
1:50 PM55 °FPartly sunny.2 mph94%29.89 "HgN/A
1:20 PM55 °FBroken clouds.1 mph94%29.89 "Hg5 mi
12:50 PM55 °FBroken clouds.1 mph88%29.89 "Hg5 mi
12:20 PM54 °FBroken clouds.2 mph94%29.89 "Hg6 mi
Weather by CustomWeather, © 2016

See weather overviewHow to use our weather pages